Weather History for Kalamata, Greece

Change the Weather History Date:

Wednesday, June 12, 2013

  Actual Average Record
Temperature  
Mean Temperature 73 °F -  
Max Temperature 82 °F 86 °F 93 °F (2003)
Min Temperature 64 °F 63 °F 57 °F (2005)
Cooling Degree Days 8    
Growing Degree Days 23 (Base 50)    
Moisture  
Dew Point 55 °F    
Average Humidity 55    
Maximum Humidity 83    
Minimum Humidity 32    
Precipitation  
Precipitation 0.00 in 0.01 in - ()
Sea Level Pressure  
Sea Level Pressure 29.75 in    
Wind  
Wind Speed 7 mph ()    
Max Wind Speed 14 mph    
Max Gust Speed 26 mph    
Visibility 6.2 miles    
Events      
Averages and records for this station are not official NWS values.
T = Trace of Precipitation, MM = Missing Value Source: Averaged Metar Reports

Daily Weather History Graph

Daily Weather History Graph

Search for Another Location

Airport:

Trip Planner

Search our weather history database for the weather conditions in past years. The results will help you decide how hot, cold, wet, or windy it might be!

Date:

Astronomy

Jun. 12, 2013 Rise Set
Actual Time 6:11 AM EEST 8:52 PM EEST
Civil Twilight 5:40 AM EEST 9:22 PM EEST
Nautical Twilight 5:02 AM EEST 10:01 PM EEST
Astronomical Twilight 4:19 AM EEST 10:44 PM EEST
Moon 9:29 AM EEST (6/12) 11:22 PM EEST (6/12)
Length of Visible Light 15h 42m
Length of Day
14h 40m
Waxing Crescent, 12% of the Moon is Illuminated
Jun 12
Waxing Crescent
Jun 16
First Quarter
Jun 23
Full
Jun 30
Last Quarter
Jul 8
New

Hourly Weather History & Observations

Time (EEST) Temp. Dew Point Humidity Pressure Visibility Wind Dir Wind Speed Gust Speed Precip Events Conditions
12:50 AM 69.8 °F 57.2 °F 64% 29.74 in 6.2 mi NNE 11.5 mph 23.0 mph N/A   Partly Cloudy
1:50 AM 69.8 °F 57.2 °F 64% 29.74 in - North 6.9 mph - N/A   Clear
2:50 AM 66.2 °F 57.2 °F 73% 29.74 in - NNE 5.8 mph - N/A   Clear
4:50 AM 64.4 °F 57.2 °F 77% 29.74 in - Calm Calm - N/A   Clear
5:50 AM 64.4 °F 59.0 °F 83% 29.74 in 6.2 mi NNE 6.9 mph - N/A   Partly Cloudy
6:20 AM 64.4 °F 59.0 °F 83% 29.74 in 6.2 mi North 5.8 mph - N/A   Partly Cloudy
6:50 AM 64.4 °F 59.0 °F 83% 29.74 in 6.2 mi Calm Calm - N/A   Partly Cloudy
7:20 AM 68.0 °F 59.0 °F 73% 29.74 in 6.2 mi North 9.2 mph - N/A   Partly Cloudy
7:50 AM 69.8 °F 59.0 °F 68% 29.74 in 6.2 mi North 9.2 mph - N/A   Partly Cloudy
8:20 AM 71.6 °F 59.0 °F 64% 29.74 in 6.2 mi North 10.4 mph - N/A   Partly Cloudy
8:50 AM 73.4 °F 59.0 °F 61% 29.77 in 6.2 mi North 9.2 mph - N/A   Scattered Clouds
9:20 AM 73.4 °F 59.0 °F 61% 29.77 in 6.2 mi North 9.2 mph - N/A   Scattered Clouds
9:50 AM 73.4 °F 57.2 °F 57% 29.77 in 6.2 mi North 9.2 mph - N/A   Partly Cloudy
10:20 AM 75.2 °F 57.2 °F 53% 29.77 in 6.2 mi North 11.5 mph 24.2 mph N/A   Partly Cloudy
10:50 AM 77.0 °F 55.4 °F 47% 29.77 in 6.2 mi NNW 12.7 mph 26.5 mph N/A   Partly Cloudy
11:20 AM 78.8 °F 50.0 °F 36% 29.77 in 6.2 mi NNW 12.7 mph 24.2 mph N/A   Partly Cloudy
11:50 AM 78.8 °F 46.4 °F 32% 29.77 in 6.2 mi NNW 13.8 mph 25.3 mph N/A   Partly Cloudy
12:20 PM 80.6 °F 50.0 °F 34% 29.77 in 6.2 mi NNW 10.4 mph - N/A   Partly Cloudy
12:50 PM 80.6 °F 50.0 °F 34% 29.74 in 6.2 mi NW 10.4 mph - N/A   Partly Cloudy
1:20 PM 80.6 °F 51.8 °F 37% 29.74 in 6.2 mi NNW 10.4 mph - N/A   Scattered Clouds
1:50 PM 80.6 °F 50.0 °F 34% 29.74 in 6.2 mi NNW 9.2 mph - N/A   Scattered Clouds
2:20 PM 82.4 °F 50.0 °F 32% 29.74 in 6.2 mi North 6.9 mph - N/A   Scattered Clouds
2:50 PM 78.8 °F 51.8 °F 39% 29.74 in 6.2 mi WNW 5.8 mph - N/A   Scattered Clouds
3:20 PM 80.6 °F 50.0 °F 34% 29.74 in 6.2 mi NW 6.9 mph - N/A   Scattered Clouds
3:50 PM 80.6 °F 50.0 °F 34% 29.74 in 6.2 mi NW 6.9 mph - N/A   Scattered Clouds
4:20 PM 80.6 °F 51.8 °F 37% 29.74 in 6.2 mi NW 8.1 mph - N/A   Scattered Clouds
4:50 PM 78.8 °F 53.6 °F 42% 29.74 in 6.2 mi NNW 9.2 mph - N/A   Scattered Clouds
5:20 PM 78.8 °F 53.6 °F 42% 29.74 in 6.2 mi NNW 5.8 mph - N/A   Scattered Clouds
5:50 PM 77.0 °F 55.4 °F 47% 29.74 in 6.2 mi NNW 9.2 mph - N/A   Scattered Clouds
6:20 PM 77.0 °F 55.4 °F 47% 29.74 in 6.2 mi North 10.4 mph - N/A   Scattered Clouds
6:50 PM 75.2 °F 55.4 °F 50% 29.74 in 6.2 mi NNW 6.9 mph - N/A   Scattered Clouds
7:20 PM 75.2 °F 55.4 °F 50% 29.77 in 6.2 mi North 9.2 mph - N/A   Scattered Clouds
7:50 PM 73.4 °F 57.2 °F 57% 29.77 in 6.2 mi North 11.5 mph - N/A   Scattered Clouds
8:20 PM 71.6 °F 57.2 °F 60% 29.77 in 6.2 mi North 9.2 mph - N/A   Scattered Clouds
8:50 PM 71.6 °F 57.2 °F 60% 29.77 in 6.2 mi North 10.4 mph - N/A   Scattered Clouds
9:20 PM 69.8 °F 57.2 °F 64% 29.77 in 6.2 mi North 6.9 mph - N/A   Scattered Clouds
9:50 PM 68.0 °F 57.2 °F 68% 29.77 in 6.2 mi NNE 4.6 mph - N/A   Partly Cloudy
10:20 PM 68.0 °F 59.0 °F 73% 29.80 in 6.2 mi North 4.6 mph - N/A   Partly Cloudy
10:50 PM 68.0 °F 59.0 °F 73% 29.77 in 6.2 mi NNE 6.9 mph - N/A   Partly Cloudy
11:50 PM 66.2 °F 59.0 °F 78% 29.80 in 6.2 mi NW 5.8 mph - N/A   Partly Cloudy